[[{"header":{"parameterUnit":"m.s-1","parameterCategory":1,"la1":30.2991,"la2":30.254,"lo1":-89.0895,"lo2":-89.0444,"dx":0.0017,"dy":0.0017,"nx":28,"ny":28,"refTime":"2022-12-23T15:00:00:Z","depth":0,"parameterNumber":2,"parameterNumberName":"U-component_of_WINDS"},"data":[0,0,0,0,0,0,0,0,0,0,0,0,0,0,0,0,0,0,0,0,0,0,0,0,0,0,0,0,0,0,0,0,0,0,0,0,0,0,0,0,0,0,0,0,0,0,0,0,0,0,0,0,0,0,0,0,0,0,1.8081,1.8081,0,1.8077,1.8077,1.8077,1.8055,1.8054,1.8054,1.8053,1.8048,1.8048,1.8048,0,0,0,0,0,0,0,0,0,0,0,0,0,1.807,1.8071,1.8081,1.8081,1.8081,1.8077,1.8077,1.8077,1.8055,1.8054,1.8054,1.8053,1.8047,1.8048,1.8048,0,0,0,0,0,0,0,0,0,0,0,0,0,1.8071,1.8071,1.8081,1.807,1.8069,1.8077,1.8077,1.8077,1.8055,1.8054,1.8054,1.8053,1.8047,1.8048,1.8048,1.8067,0,0,1.805,1.805,0,0,0,0,0,0,0,0,1.8071,1.8072,1.8071,1.807,1.8069,1.8066,1.8071,1.8073,1.8055,1.806,1.8053,1.8052,1.8054,1.8054,1.8055,1.8066,1.8066,1.805,1.805,1.805,1.805,0,0,0,0,0,0,0,1.8071,1.8072,1.8079,1.8071,1.807,1.8065,1.8064,1.8071,1.8061,1.806,1.8058,1.8058,1.8053,1.8054,1.8054,1.8066,1.805,1.805,1.805,1.8051,1.8093,1.8094,0,0,0,0,0,0,1.8073,1.8072,1.8079,1.8079,1.8068,1.8066,1.8065,1.8067,1.8061,1.806,1.8059,1.8057,1.8054,1.8054,1.8054,1.8075,1.805,1.8051,1.8051,1.8092,1.8093,1.8094,0,0,0,0,0,0,1.8073,1.8074,1.808,1.8075,1.8075,1.8067,1.807,1.8068,1.8069,1.8061,1.8059,1.8061,1.8053,1.8054,1.8064,1.8075,1.8051,1.8051,1.8091,1.8093,1.8094,1.8117,0,0,0,0,0,0,1.8072,1.8074,1.808,1.8075,1.8076,1.8089,1.807,1.8068,1.807,1.8068,1.8063,1.8061,1.8053,1.8063,1.8064,1.8075,1.8052,1.809,1.8092,1.8093,1.8116,1.8119,1.8123,0,0,0,0,0,1.8072,1.8087,1.8081,1.8082,1.8084,1.809,1.809,1.8081,1.8071,1.8077,1.8073,1.8061,1.8074,1.8065,1.8066,1.8076,1.809,1.8091,1.8093,1.8114,1.8119,1.8123,0,0,0,0,0,0,1.8092,1.8086,1.8079,1.8093,1.8092,1.8086,1.8094,1.8086,1.8087,1.8085,1.8073,1.8072,1.8084,1.8082,1.8072,1.8094,1.808,1.8082,1.8095,1.81,1.8103,1.8103,1.8052,0,0,0,0,0,1.8099,1.8104,1.8098,1.8111,1.8111,1.8103,1.8105,1.8098,1.8097,1.8096,1.8092,1.8091,1.8095,1.8097,1.81,1.8116,1.8114,1.8124,1.8128,1.813,1.8132,1.814,1.8144,1.8101,1.81,1.81,0,0,1.8111,1.8108,1.8112,1.8115,1.8113,1.812,1.8103,1.811,1.8114,1.8097,1.8107,1.8104,1.8102,1.8115,1.8121,1.8113,1.8144,1.8133,1.8135,1.8135,1.8143,1.8147,1.8151,1.8102,1.8102,1.8101,0,0,1.8136,1.8135,1.8146,1.8145,1.8144,1.8139,1.8142,1.8138,1.8135,1.8145,1.8133,1.8138,1.8145,1.8144,1.8145,1.8172,1.8162,1.8174,1.8191,1.82,1.8203,1.8206,1.8215,1.8219,1.8176,1.8176,1.8176,0,1.8152,1.816,1.8152,1.816,1.8161,1.8148,1.8159,1.8159,1.8158,1.816,1.8152,1.8161,1.8158,1.8171,1.8179,1.818,1.8182,1.8173,1.8203,1.8206,1.8209,1.8218,1.8221,1.8177,1.8177,1.8177,1.8177,0,1.8179,1.8186,1.8194,1.8195,1.8198,1.8207,1.82,1.8204,1.8198,1.8194,1.8204,1.8202,1.8204,1.8207,1.82,1.822,1.8215,1.8206,1.819,1.8215,1.8223,1.8226,1.8179,1.8179,1.8178,1.8178,0,0,1.8214,1.8212,1.8216,1.8216,1.8215,1.822,1.8229,1.8232,1.8236,1.8237,1.8244,1.8251,1.8243,1.8244,1.8237,1.8245,1.8267,1.8234,1.8234,1.824,1.8287,1.8294,1.8298,1.8261,1.8261,1.8262,1.8287,0,1.8238,1.8254,1.8247,1.8263,1.8269,1.8258,1.8266,1.8266,1.8264,1.8268,1.8265,1.827,1.8259,1.8259,1.8266,1.8263,1.8276,1.8261,1.8267,1.8267,1.8266,1.8302,1.8308,1.8332,1.829,1.8291,1.8291,0,1.8267,1.827,1.8287,1.8286,1.8288,1.8296,1.8299,1.8304,1.8304,1.8302,1.8304,1.8296,1.8305,1.8292,1.8304,1.8294,1.8296,1.8295,1.8296,1.8295,1.8279,1.8301,1.8339,1.8343,1.8296,1.8296,1.8296,0,1.829,1.8299,1.831,1.8312,1.8311,1.8316,1.8316,1.8316,1.8319,1.8322,1.8324,1.8327,1.8329,1.8332,1.8326,1.8317,1.8339,1.8325,1.8337,1.8337,1.834,1.834,1.8379,1.8344,1.8344,1.8344,1.8344,0,1.8317,1.8327,1.8321,1.8328,1.8339,1.8333,1.8345,1.8343,1.8344,1.835,1.8341,1.8347,1.8339,1.8345,1.834,1.8351,1.8352,1.835,1.8348,1.835,1.835,1.835,1.8347,1.8345,1.8345,1.8345,1.8345,0,1.8343,1.834,1.8351,1.8351,1.8351,1.8359,1.8358,1.8365,1.8362,1.8371,1.8372,1.8368,1.8374,1.8369,1.8375,1.8372,1.8386,1.8382,1.8385,1.8384,1.8395,1.8394,1.8434,1.8439,1.8403,1.8403,1.8404,0,1.8359,1.8367,1.8368,1.8372,1.8373,1.8379,1.8383,1.8377,1.8381,1.8383,1.8389,1.8395,1.8399,1.8409,1.8407,1.8411,1.8407,1.8421,1.8408,1.8409,1.8406,1.8405,1.8406,1.8423,1.8424,1.8424,1.8424,0,1.8388,1.8387,1.8392,1.8397,1.8402,1.8405,1.8408,1.8412,1.8406,1.8411,1.8418,1.8421,1.8428,1.8434,1.8438,1.8437,1.843,1.8429,1.8432,1.8433,1.8434,1.8432,1.8392,1.8428,1.8427,1.8427,1.8427,1.8427,1.8409,1.8416,1.8418,1.8425,1.8427,1.843,1.8436,1.8435,1.8441,1.8446,1.8443,1.8451,1.8453,1.8457,1.8458,1.8464,1.8459,1.8463,1.8463,1.8464,1.8465,1.8434,1.8465,1.8465,1.8465,1.8465,1.8465,0,1.8437,1.8438,1.8444,1.8449,1.8455,1.8449,1.8452,1.8457,1.8464,1.8467,1.8472,1.848,1.8486,1.8485,1.849,1.8495,1.8492,1.8497,1.8495,1.8495,1.8471,1.8467,1.8499,1.8499,1.8499,1.8499,1.8499,1.8499,1.8452,1.8463,1.8462,1.8475,1.8476,1.8484,1.8487,1.849,1.8492,1.8502,1.8507,1.8507,1.8508,1.8513,1.8519,1.8518,1.852,1.8526,1.8524,1.8501,1.8497,1.8494,1.8491,1.8527,1.8527,1.8548,1.8548,1.8548]},{"header":{"parameterUnit":"m.s-1","parameterCategory":1,"la1":30.2991,"la2":30.254,"lo1":-89.0895,"lo2":-89.0444,"dx":0.0017,"dy":0.0017,"nx":28,"ny":28,"refTime":"2022-12-23T15:00:00:Z","depth":0,"parameterNumber":3,"parameterNumberName":"V-component_of_WINDS"},"data":[0,0,0,0,0,0,0,0,0,0,0,0,0,0,0,0,0,0,0,0,0,0,0,0,0,0,0,0,0,0,0,0,0,0,0,0,0,0,0,0,0,0,0,0,0,0,0,0,0,0,0,0,0,0,0,0,0,0,-6.1147,-6.1149,0,-6.1334,-6.1337,-6.1339,-6.1276,-6.1272,-6.1267,-6.1264,-6.1453,-6.1461,-6.147,0,0,0,0,0,0,0,0,0,0,0,0,0,-6.073,-6.0738,-6.1147,-6.1149,-6.1151,-6.1334,-6.1337,-6.1339,-6.1276,-6.1271,-6.1266,-6.1262,-6.145,-6.146,-6.1471,0,0,0,0,0,0,0,0,0,0,0,0,0,-6.0913,-6.074,-6.1146,-6.1142,-6.1143,-6.1334,-6.1337,-6.134,-6.1277,-6.1271,-6.1265,-6.1259,-6.1446,-6.1459,-6.1472,-6.1677,0,0,-6.1513,-6.1519,0,0,0,0,0,0,0,0,-6.0903,-6.0929,-6.114,-6.1143,-6.1145,-6.1275,-6.1259,-6.1453,-6.1279,-6.1227,-6.1263,-6.1256,-6.1398,-6.1415,-6.1464,-6.1686,-6.1694,-6.1514,-6.1522,-6.1528,-6.1532,0,0,0,0,0,0,0,-6.089,-6.092,-6.1221,-6.1143,-6.1146,-6.1129,-6.1149,-6.1295,-6.1344,-6.1231,-6.1226,-6.125,-6.1398,-6.1451,-6.1468,-6.1697,-6.1514,-6.1525,-6.1534,-6.1539,-6.2094,-6.21,0,0,0,0,0,0,-6.0877,-6.091,-6.1215,-6.1226,-6.1006,-6.1142,-6.1164,-6.124,-6.1343,-6.1353,-6.1255,-6.1246,-6.1432,-6.1452,-6.1474,-6.172,-6.1528,-6.154,-6.1548,-6.2087,-6.2095,-6.2103,0,0,0,0,0,0,-6.0868,-6.0905,-6.1207,-6.1067,-6.1105,-6.1156,-6.1242,-6.1247,-6.1299,-6.1361,-6.1369,-6.13,-6.1428,-6.1456,-6.1627,-6.1725,-6.1546,-6.1558,-6.2079,-6.209,-6.2099,-6.2212,0,0,0,0,0,0,-6.0856,-6.0902,-6.0981,-6.107,-6.1112,-6.1358,-6.1248,-6.1255,-6.1323,-6.1313,-6.1406,-6.1415,-6.1425,-6.1607,-6.164,-6.174,-6.1568,-6.207,-6.2084,-6.2096,-6.22,-6.2225,-6.2247,0,0,0,0,0,-6.0842,-6.1005,-6.0986,-6.1023,-6.1213,-6.1364,-6.1388,-6.1398,-6.1331,-6.141,-6.145,-6.1412,-6.1709,-6.1625,-6.1662,-6.1767,-6.2064,-6.208,-6.2095,-6.219,-6.222,-6.2246,0,0,0,0,0,0,-6.0927,-6.1017,-6.0996,-6.1193,-6.1272,-6.1353,-6.1454,-6.143,-6.1528,-6.1515,-6.1521,-6.1542,-6.1718,-6.176,-6.1665,-6.197,-6.1877,-6.19,-6.1936,-6.1966,-6.1989,-6.1975,-6.158,0,0,0,0,0,-6.0968,-6.1085,-6.1157,-6.1324,-6.1365,-6.1403,-6.1469,-6.1469,-6.155,-6.1583,-6.1634,-6.1714,-6.1824,-6.1897,-6.2003,-6.2206,-6.2224,-6.2296,-6.2319,-6.2338,-6.2358,-6.2467,-6.2499,-6.2153,-6.2153,-6.2152,0,0,-6.1056,-6.1119,-6.1193,-6.1343,-6.1403,-6.1523,-6.1431,-6.1561,-6.1649,-6.1602,-6.1767,-6.1808,-6.1896,-6.2084,-6.2169,-6.2124,-6.2458,-6.2358,-6.2372,-6.2382,-6.2486,-6.2519,-6.2548,-6.2163,-6.2161,-6.216,0,0,-6.1275,-6.1336,-6.1481,-6.1544,-6.1637,-6.1661,-6.1696,-6.1782,-6.1807,-6.1973,-6.194,-6.2044,-6.2235,-6.2299,-6.2357,-6.26,-6.2568,-6.2634,-6.2756,-6.2862,-6.2889,-6.2913,-6.2999,-6.3029,-6.2654,-6.2654,-6.2654,0,-6.1372,-6.1552,-6.1559,-6.1692,-6.1758,-6.1722,-6.1868,-6.1928,-6.2051,-6.2097,-6.2045,-6.2284,-6.2341,-6.2542,-6.2601,-6.2649,-6.2688,-6.2623,-6.2885,-6.2909,-6.2932,-6.3013,-6.3046,-6.2661,-6.266,-6.266,-6.2659,0,-6.1665,-6.179,-6.1896,-6.2016,-6.2094,-6.2233,-6.226,-6.2338,-6.2331,-6.236,-6.2529,-6.2596,-6.2714,-6.2761,-6.2756,-6.2962,-6.2931,-6.2882,-6.2788,-6.2972,-6.3049,-6.308,-6.2672,-6.2669,-6.2667,-6.2665,0,0,-6.1944,-6.2066,-6.2105,-6.2158,-6.2258,-6.2354,-6.249,-6.2607,-6.2673,-6.2759,-6.2872,-6.3035,-6.299,-6.3055,-6.3056,-6.3149,-6.3336,-6.3089,-6.3091,-6.3131,-6.3566,-6.3602,-6.3638,-6.3316,-6.3322,-6.3327,-6.3558,0,-6.2172,-6.2413,-6.2423,-6.2642,-6.2757,-6.2723,-6.2842,-6.2915,-6.2945,-6.3046,-6.3079,-6.3194,-6.3126,-6.3165,-6.3256,-6.3294,-6.3423,-6.3278,-6.342,-6.3425,-6.3399,-6.3678,-6.3717,-6.3932,-6.3588,-6.3593,-6.3597,0,-6.247,-6.2565,-6.2796,-6.2878,-6.2927,-6.3034,-6.314,-6.3237,-6.3319,-6.3334,-6.3407,-6.3394,-6.3532,-6.3434,-6.3624,-6.3524,-6.3583,-6.3611,-6.3619,-6.3632,-6.3522,-6.3698,-6.4001,-6.4033,-6.3645,-6.3641,-6.3637,0,-6.2649,-6.2835,-6.2997,-6.3044,-6.3144,-6.322,-6.3265,-6.3341,-6.3409,-6.3502,-6.3546,-6.3654,-6.3712,-6.3795,-6.3811,-6.3738,-6.4,-6.3904,-6.4016,-6.4015,-6.4072,-6.4068,-6.4388,-6.4111,-6.4111,-6.411,-6.4109,0,-6.2902,-6.3044,-6.3079,-6.3179,-6.3337,-6.3346,-6.3502,-6.3541,-6.3608,-6.3714,-6.369,-6.379,-6.3805,-6.3907,-6.392,-6.4074,-6.4101,-6.4116,-6.4118,-6.4119,-6.4116,-6.4157,-6.4142,-6.4119,-6.4117,-6.4115,-6.4114,0,-6.3129,-6.3158,-6.3333,-6.3413,-6.3436,-6.3549,-6.3617,-6.3712,-6.3739,-6.3873,-6.3905,-6.3948,-6.4067,-6.4091,-6.4232,-6.4241,-6.4424,-6.4411,-6.4397,-6.4395,-6.4506,-6.4495,-6.4862,-6.491,-6.4602,-6.4605,-6.4608,0,-6.3289,-6.3397,-6.3489,-6.3559,-6.3608,-6.372,-6.379,-6.3802,-6.3876,-6.3977,-6.4059,-6.4176,-6.427,-6.4462,-6.4505,-6.4612,-6.4601,-6.4722,-6.4617,-6.4613,-6.4601,-6.4595,-6.4605,-6.4742,-6.4745,-6.4748,-6.475,0,-6.3568,-6.3577,-6.3679,-6.3787,-6.3871,-6.3957,-6.4037,-6.4095,-6.4118,-6.4202,-6.4324,-6.4397,-6.4541,-6.4657,-6.4764,-6.4808,-6.4783,-6.4783,-6.4815,-6.4816,-6.4803,-6.481,-6.4451,-6.4775,-6.4772,-6.477,-6.4769,-6.4768,-6.3766,-6.386,-6.394,-6.4054,-6.4116,-6.4192,-6.4285,-6.4324,-6.4426,-6.4545,-6.4545,-6.4679,-6.4756,-6.4897,-6.4948,-6.5051,-6.5013,-6.5059,-6.507,-6.5081,-6.5091,-6.4787,-6.5071,-6.507,-6.5069,-6.5069,-6.5068,0,-6.4043,-6.4092,-6.4197,-6.4311,-6.4401,-6.437,-6.4458,-6.4535,-6.4652,-6.4727,-6.482,-6.4959,-6.5071,-6.5123,-6.5233,-6.5305,-6.5297,-6.5334,-6.5328,-6.5339,-6.512,-6.5081,-6.5339,-6.5339,-6.5339,-6.5339,-6.5339,-6.5339,-6.4198,-6.4356,-6.4374,-6.4562,-6.461,-6.4741,-6.4793,-6.4862,-6.4922,-6.5079,-6.5172,-6.5205,-6.527,-6.5384,-6.5485,-6.5497,-6.5538,-6.5581,-6.5587,-6.5382,-6.5354,-6.5328,-6.5292,-6.559,-6.559,-6.5798,-6.58,-6.5801]}]]